Showing default

NPSAT1, 44340

Orbit data source: Space-Track

NPSAT1, 44340 is a payload satellite owned by USN PGS (US) in LEO that was launched on Tue, 25 Jun 2019 UTC via an FALCON HEAVY launch vehicle from the Air Force Eastern Test Range (AFETR). Payload-class satellites include a variety of spacecraft equipped with specific instruments for various scientific and technological missions. These include communications satellites like Starlink; space stations such as the ISS; scientific satellites like the Hubble; Earth observation satellites from companies like Planet Labs, Umbra, and HawkEye 360; GPS; miniature CubeSats for education and research; and military/defense satellites.

Not visible in the next 10 days
Identifier
44340, 2019-036B
Orbit
LEO
Country
Flag of USUS
Related business
Manufacturer
USN PGS
Mission
Operational Defense Tech/Sci
Bus & Motor
NPSAT, Unknown motor
Mass
83 kg wet, 83 kg dry
Launch date (UTC)
2019-06-25 (7 years ago)
Launch vehicle
FALCON HEAVY
Launch site
Air Force Eastern Test Range (AFETR)
Object type
Payload
Rocket body
Debris
Shape & HBR
Cyl + 2 Ant, 0.4 m
Radar Cross Section
0.314 m², Medium (>0.1 m² and < 1m²)

Expand to show TLE details & history
Last TLE update: 11 hours ago

TLE from 11 hours ago
0 NPSAT1
1 44340U 19036B   26095.01463100  .00008523  00000-0  12345-2 0  9996
2 44340  24.0004 334.0659 0007746 105.2271 254.9082 14.73895872361687
Epoch: 2026-04-05T00:21Z
TLE epoch observation values (Epoch: 2026-04-05T00:21:04.118Z)
Latitude
0.00001°
Longitude
135.47263°
Altitude
647.99 km
Speed
7.536 km/s
True Right ascension
22h 16m 15s
True Declination
0° 00' 00"
Sunlit
Object was in daylight at epoch
Visualization orbit readout
Latitude
Unknown
Longitude
Unknown
Altitude
Unknown
Speed
Unknown
Apparent Right ascension
Unknown
Apparent Declination
Unknown
Sunlit
N/A
Visualization observer readout
Local Sidereal Time
17:02:14
Azimuth
Unknown
Elevation
Unknown
Doppler factor
Unknown
Orbital elements
Apogee altitude
658.824 km
Perigee altitude
647.931 km
Semi-major axis
7,031.514 km
Eccentricity
0.00077
Inclination
24.0004°
RAAN
334.0659°
Arg. of periapsis
105.2271°
True anomaly
254.82252°
Mean anomaly
254.9082°
Eccentric anomaly
254.86536°
Mean motion
3.68103 °/min
Orbital period
97.8 mins
BSTAR
0.0012345
Loading maneuver chart data...
Computing Atmospheric mass density...
Loading historical data...
Loading historical data...
Loading historical data...
Loading historical data...
Loading historical data...
Loading historical data...
Loading historical data...

Documentation

Showing up to 5 results
|